Regional Weather Roundup
Issued by NWS Huntsville, AL

Home | Current Version | Previous Version | Text Only | Print | Product List | Glossary On
Versions: 1 2 3 4 5 6 7 8 9 10 11 12 13 14 15 16 17 18 19 20 21 22 23 24 25 26 27 28 29 30 31 32 33 34 35 36 37 38 39 40 41 42 43 44 45 46 47 48 49 50
000
ASUS44 KHUN 271310
RWRHUN

WEATHER ROUNDUP FOR THE TENNESSEE VALLEY
NATIONAL WEATHER SERVICE HUNTSVILLE AL
700 AM CST THU NOV 27 2014

ALZ001>004-271400-
NORTHWEST ALABAMA

CITY           SKY/WX    TMP DP  RH WIND       PRES   REMARKS
SHOALS AIRPORT CLOUDY    40  31  70 N12G21    30.33R WCI  33
$$

ALZ005>007-016-271400-
NORTH CENTRAL ALABAMA

CITY           SKY/WX    TMP DP  RH WIND       PRES   REMARKS
DECATUR AP     CLOUDY    39  32  76 NW10      30.30R WCI  32
HUNTSVILLE AP  CLOUDY    40  32  73 NW9       30.29R WCI  34
HUN NWS/UAH      N/A     38  33  80 NW9         N/A  WCI  32
MERIDIANVILLE  CLOUDY    37  30  75 NW18      30.28R WCI  27
REDSTONE ARSN  CLOUDY    37  34  90 NW5       30.28R WCI  33
VINEMONT AP    FAIR      36  32  86 NW6       30.29R WCI  31
$$

ALZ008>010-271400-
NORTHEAST ALABAMA

CITY           SKY/WX    TMP DP  RH WIND       PRES   REMARKS
ALBERTVILLE    MOCLDY    36  36 100 W10       30.24R WCI  28
FORT PAYNE     CLOUDY    37  30  75 NW7       30.22R WCI  32
SCOTTSBORO AP  CLOUDY    39  32  75 NW10G17   30.26R WCI  32
VALLEY HEAD      N/A     39 N/A N/A MISG        N/A
$$

TNZ076-096-097-271400-
SOUTHEASTERN MIDDLE TENNESSEE

CITY           SKY/WX    TMP DP  RH WIND       PRES   REMARKS
TULLAHOMA      CLOUDY    34  30  86 N14       30.26R WCI  24
WINCHESTER     CLOUDY    36  32  87 NW12      30.26R WCI  27
$$

...SURROUNDING SITES...

CITY           SKY/WX    TMP DP  RH WIND       PRES   REMARKS
ATLANTA        MOCLDY    40  30  67 W9        30.20R WCI  34
ANNISTON       PTCLDY    41  31  67 W8G17     30.27R
BIRMINGHAM     PTCLDY    37  31  78 NW7       30.32R WCI  32
CHATTANOOGA    MOCLDY    39  33  79 NW8       30.22R WCI  33
CORINTH        CLOUDY    39  30  70 NW9G18    30.36R WCI  33
DALTON         DRIZZLE   41  34  75 NW13G18   30.21R
GADSDEN        CLOUDY    39  30  70 W8        30.27R WCI  34
GOLDEN TRNGL   CLEAR     36  28  75 NW7       30.36R WCI  30
HALEYVILLE     MOCLDY    35  32  89 NW3       30.33R
JACKSON TN     CLOUDY    38  30  73 NW12      30.37R WCI  30
LEWISBURG      CLOUDY    38  31  76 NW9       30.29R WCI  31
MEMPHIS        CLOUDY    39  28  64 N12G21    30.43R WCI  32
MURFREESBORO   CLOUDY    36  32  85 NW8       30.28R WCI  30
NASHVILLE      CLOUDY    37  32  82 NW9       30.30R WCI  30
OXFORD MS      CLOUDY    37  27  65 N13G22    30.42R WCI  29
ROME           MOCLDY    41  31  67 W8        30.21R
SAVANNAH       CLOUDY    37  28  70 N10       30.35R WCI  30
TUPELO         CLOUDY    38  29  70 N7        30.37R WCI  33
TUSCALOOSA     CLEAR     37  29  72 W5        30.36R WCI  33
$$

...GULF COAST WEATHER...

CITY           SKY/WX    TMP DP  RH WIND       PRES   REMARKS
GULFPORT       CLEAR     42  38  85 NW5       30.38R
PASCAGOULA     CLEAR     35  34  96 CALM      30.37R
MOBILE         CLEAR     42  36  79 NW7       30.36R
GULF SHORES    SUNNY     46  41  81 NW5       30.34R
PENSACOLA      CLEAR     48  41  76 NW5       30.33R
DESTIN         CLEAR     50  41  71 VRB5      30.32R
PANAMA CITY    CLEAR     50  43  76 NW6       30.32R
APPALACHICOLA  CLEAR     53  44  71 N6        30.30R
$$



USA.gov is the U.S. government's official web portal to all federal, state and local government web resources and services.